N1825 KNFW-KNBG

Flight info

Callsign N1825
Flight time N/A
Altitude 40000
Route GARL6 GGG DCT AEX DCT HRV DCT
Aircraft F16/M-SDE3GILORVW/LB1

Departure

Time N/A
Airport NAS Fort Worth JRB / Carswell Field (KNFW)

Arrival

Time 2026-04-23 00:51
Airport New Orleans NAS JRB/Alvin Callender Field (KNBG)
Time Latitude Longitude Altitude Speed Heading
2026-04-23 00:34 31.21952 -93.18874 38109 ft 871 kts 103°
2026-04-23 00:34 31.20185 -93.11949 37559 ft 938 kts 111°
2026-04-23 00:34 31.17517 -93.04395 37745 ft 1069 kts 114°
2026-04-23 00:34 31.14356 -92.95996 37793 ft 1184 kts 115°
2026-04-23 00:35 31.10741 -92.87036 37654 ft 1244 kts 116°
2026-04-23 00:35 31.06930 -92.77851 37089 ft 1243 kts 116°
2026-04-23 00:35 31.03479 -92.69504 36731 ft 1070 kts 116°
2026-04-23 00:35 31.00395 -92.62024 36188 ft 980 kts 116°
2026-04-23 00:36 30.97564 -92.55167 35596 ft 900 kts 116°
2026-04-23 00:36 30.94947 -92.48848 34978 ft 827 kts 116°
2026-04-23 00:36 30.92552 -92.43052 34364 ft 761 kts 116°
2026-04-23 00:36 30.90346 -92.37700 33704 ft 720 kts 116°
2026-04-23 00:37 30.88102 -92.32257 33045 ft 776 kts 116°
2026-04-23 00:37 30.85659 -92.26349 32441 ft 843 kts 116°
2026-04-23 00:37 30.83112 -92.20195 31865 ft 850 kts 116°
2026-04-23 00:37 30.80575 -92.14070 31320 ft 854 kts 116°
2026-04-23 00:38 30.77899 -92.07610 30800 ft 917 kts 116°
2026-04-23 00:38 30.75009 -92.00627 28731 ft 1003 kts 115°
2026-04-23 00:38 30.71782 -91.93038 25595 ft 1080 kts 117°
2026-04-23 00:38 30.68179 -91.85141 22761 ft 1132 kts 117°
2026-04-23 00:39 30.64150 -91.77244 21929 ft 1140 kts 122°
2026-04-23 00:39 30.59827 -91.69599 21415 ft 1105 kts 119°
2026-04-23 00:39 30.56448 -91.61899 20786 ft 1040 kts 116°
2026-04-23 00:39 30.53178 -91.54195 19861 ft 1087 kts 116°
2026-04-23 00:40 30.49864 -91.46159 18966 ft 1119 kts 115°
2026-04-23 00:40 30.46589 -91.37933 17415 ft 1074 kts 114°
2026-04-23 00:40 30.42759 -91.30146 12940 ft 1103 kts 112°
2026-04-23 00:40 30.39967 -91.22371 10356 ft 1001 kts 113°
2026-04-23 00:41 30.37316 -91.15165 7163 ft 946 kts 116°
2026-04-23 00:41 30.34543 -91.08625 6509 ft 863 kts 116°
2026-04-23 00:41 30.31808 -91.02699 5682 ft 822 kts 125°
2026-04-23 00:41 30.28443 -90.97604 4619 ft 776 kts 128°
2026-04-23 00:42 30.24976 -90.92469 4053 ft 820 kts 128°
2026-04-23 00:42 30.21598 -90.87479 3622 ft 763 kts 128°
2026-04-23 00:42 30.18289 -90.82588 3159 ft 768 kts 128°
2026-04-23 00:42 30.15079 -90.77839 2881 ft 732 kts 128°
2026-04-23 00:43 30.11989 -90.73260 2744 ft 727 kts 129°
2026-04-23 00:43 30.08749 -90.68460 2503 ft 759 kts 128°
2026-04-23 00:43 30.05586 -90.63763 2205 ft 726 kts 128°
2026-04-23 00:43 30.02522 -90.59206 1833 ft 711 kts 128°
2026-04-23 00:44 29.99539 -90.54734 2176 ft 693 kts 127°
2026-04-23 00:44 29.96462 -90.50504 2360 ft 698 kts 134°
2026-04-23 00:44 29.92911 -90.46282 2034 ft 734 kts 137°
2026-04-23 00:44 29.89018 -90.43254 2098 ft 525 kts 158°
2026-04-23 00:45 29.87546 -90.40829 1599 ft 362 kts 107°
2026-04-23 00:45 29.86861 -90.38271 1035 ft 311 kts 111°
2026-04-23 00:45 29.86149 -90.36022 824 ft 296 kts 109°
2026-04-23 00:45 29.85832 -90.33588 989 ft 285 kts 106°
2026-04-23 00:46 29.85353 -90.31607 570 ft 246 kts 96°
2026-04-23 00:46 29.85541 -90.28999 474 ft 367 kts 84°
2026-04-23 00:46 29.85865 -90.26105 540 ft 345 kts 84°
2026-04-23 00:46 29.86172 -90.23501 579 ft 334 kts 84°
2026-04-23 00:47 29.86492 -90.20566 947 ft 381 kts 85°
2026-04-23 00:47 29.86786 -90.17587 1192 ft 372 kts 86°
2026-04-23 00:47 29.87009 -90.14607 1408 ft 373 kts 88°
2026-04-23 00:47 29.87187 -90.11387 1528 ft 466 kts 88°
2026-04-23 00:48 29.87385 -90.07240 1325 ft 550 kts 88°
2026-04-23 00:48 29.87262 -90.02672 1178 ft 515 kts 111°
2026-04-23 00:48 29.85515 -90.00941 1029 ft 263 kts 179°
2026-04-23 00:48 29.83921 -90.01673 1727 ft 264 kts 224°
2026-04-23 00:49 29.82568 -90.03417 1998 ft 321 kts 229°
2026-04-23 00:49 29.83099 -90.05798 2511 ft 398 kts 324°
2026-04-23 00:49 29.85498 -90.05802 1855 ft 401 kts 52°
2026-04-23 00:49 29.87379 -90.03102 1871 ft 465 kts 54°
2026-04-23 00:50 29.89415 -90.00008 1839 ft 468 kts 55°
2026-04-23 00:50 29.89717 -89.97359 2184 ft 316 kts 143°
2026-04-23 00:50 29.87924 -89.97264 1613 ft 282 kts 219°
2026-04-23 00:50 29.86666 -89.98813 722 ft 255 kts 225°
2026-04-23 00:51 29.85510 -90.00243 310 ft 232 kts 221°
2026-04-23 00:51 29.84456 -90.01396 53 ft 186 kts 219°
2026-04-23 00:51 29.83476 -90.02474 69 ft 210 kts 223°
2026-04-23 00:51 29.83240 -90.03590 259 ft 0 kts 283°
2026-04-23 00:52 29.83503 -90.04241 553 ft 256 kts 303°
2026-04-23 00:52 29.84961 -90.05706 672 ft 296 kts 358°
2026-04-23 00:52 29.86732 -90.04529 622 ft 344 kts 55°
2026-04-23 00:52 29.88030 -90.01946 568 ft 408 kts 63°
2026-04-23 00:53 29.88588 -89.99288 1985 ft 251 kts 157°
2026-04-23 00:53 29.86986 -89.99443 1016 ft 224 kts 189°
2026-04-23 00:53 29.85673 -90.00043 539 ft 193 kts 216°
2026-04-23 00:53 29.84762 -90.01062 171 ft 172 kts 218°
2026-04-23 00:54 29.83905 -90.01998 12 ft 165 kts 225°
2026-04-23 00:54 29.83044 -90.02983 129 ft 204 kts 221°
2026-04-23 00:54 29.82371 -90.04620 611 ft 252 kts 279°
2026-04-23 00:54 29.83621 -90.05866 1340 ft 282 kts 342°
2026-04-23 00:55 29.85674 -90.06332 1702 ft 302 kts 31°
2026-04-23 00:55 29.87357 -90.04683 2069 ft 355 kts 46°
2026-04-23 00:55 29.89335 -90.02506 1852 ft 431 kts 46°
2026-04-23 00:55 29.91653 -89.99912 1791 ft 475 kts 46°
2026-04-23 00:56 29.93042 -89.97672 1900 ft 265 kts 96°
2026-04-23 00:56 29.92022 -89.96398 1793 ft 232 kts 171°
2026-04-23 00:56 29.90413 -89.96129 1610 ft 232 kts 173°
2026-04-23 00:56 29.88948 -89.96438 1197 ft 209 kts 213°
2026-04-23 00:57 29.87925 -89.97554 836 ft 196 kts 222°
2026-04-23 00:57 29.86952 -89.98662 602 ft 193 kts 218°
2026-04-23 00:57 29.86005 -89.99695 382 ft 179 kts 221°
2026-04-23 00:57 29.85143 -90.00646 194 ft 167 kts 220°
2026-04-23 00:58 29.84287 -90.01566 37 ft 167 kts 224°
2026-04-23 00:58 29.83535 -90.02419 5 ft 132 kts 224°
2026-04-23 00:58 29.82976 -90.03046 -1 ft 94 kts 225°
2026-04-23 00:58 29.82601 -90.03464 5 ft 41 kts 221°
2026-04-23 00:59 29.82445 -90.03624 5 ft 14 kts 220°
2026-04-23 00:59 29.82367 -90.03693 3 ft 14 kts 204°
2026-04-23 00:59 29.82314 -90.03671 3 ft 12 kts 135°
2026-04-23 00:59 29.82251 -90.03596 3 ft 12 kts 133°
2026-04-23 01:00 29.82233 -90.03522 5 ft 9 kts 72°
2026-04-23 01:00 29.82254 -90.03466 6 ft 7 kts 66°
2026-04-23 01:00 29.82275 -90.03411 7 ft 7 kts 67°
2026-04-23 01:00 29.82291 -90.03370 7 ft 13 kts 64°
2026-04-23 01:01 29.82380 -90.03230 8 ft 16 kts 50°
2026-04-23 01:01 29.82427 -90.03164 9 ft 16 kts 50°
2026-04-23 01:01 29.82482 -90.03084 7 ft 8 kts 66°
2026-04-23 01:01 29.82485 -90.03019 7 ft 8 kts 111°
2026-04-23 01:02 29.82484 -90.02960 6 ft 10 kts 47°
2026-04-23 01:02 29.82551 -90.02942 6 ft 10 kts 315°